Location: Newark
(7.0858°N, 171.3717°E)
Time: 06:15:09
(UTC+00:00)

Courier 1B Rocket - Pass Details

Date: 02 December 2020
Orbit: 920 x 1202 km, 28.2° (Epoch: 20 January)

Event Time Altitude Azimuth Distance (km) Brightness Sun altitude
Rises 11:11:34 0° 210° (SSW) 3,687 - -67.0°
Reaches altitude 10° 11:15:01 10° 193° (SSW) 2,788 - -67.6°
Maximum altitude 11:19:42 19° 149° (SSE) 2,242 - -68.4°
Drops below altitude 10° 11:24:36 10° 105° (ESE) 2,934 - -69.3°
Sets 11:28:20 0° 89° (E) 3,946 - -69.9°
